Regional Weather Roundup
Issued by NWS

Home | Current Version | Previous Version | Text Only | Print | Product List | Glossary Off
Versions: 1 2 3 4 5 6 7 8 9 10 11 12 13 14 15 16 17 18 19 20 21 22 23 24 25 26 27 28 29 30 31 32 33 34 35 36 37 38 39 40 41 42 43 44 45 46 47 48 49 50

000
ASUS43 KIND 290759
RWRIN

WEATHER ROUNDUP FOR INDIANA
NATIONAL WEATHER SERVICE INDIANAPOLIS IN
400 AM EDT THU JUN 29 2017

NOTE: "FAIR" INDICATES FEW OR NO CLOUDS BELOW 12,000 FEET WITH NO
SIGNIFICANT WEATHER AND/OR OBSTRUCTIONS TO VISIBILITY.

* - STATION DOES NOT REPORT WEATHER SUCH AS PRECIPITATION OR FOG.

+ - STATION NOT QUALITY CONTROLLED BY THE NATIONAL WEATHER SERVICE.
    USE DATA WITH CAUTION...ESPECIALLY DEWPOINT AND RELATIVE
    HUMIDITY OBSERVATIONS.

INZ001>003-010>013-019-020-290900-
NORTHWEST INDIANA

CITY           SKY/WX    TMP DP  RH WIND       PRES   REMARKS
KNOX *+        MOCLDY    72  50  46 SW9       29.85R
MICHIGAN CITY+ CLOUDY    68  64  88 SE6       29.82F
MONTICELLO +   CLOUDY    73  60  65 S18G24    29.86S
RENSSELAER +   CLOUDY    73  59  60 S20G32    29.83S

$$

LMZ046-743>745-290900-
SOUTHERN LAKE MICHIGAN

STATION/POSITION TIME  TEMP    WIND        PRES    WAVE
                       AIR SEA DIR/SP/G            HT
                 (UTC) (F)     (DEG/KT/KT) (MB)    (FT)
BURNS HARBOR     0740   73     180/  7/ 12 1009.8F
MICHIGAN CITY    0730   67     130/  9/ 11   N/A
5NW MICH CITY    0750   67 65  150/ 10/ 14   N/A     1

$$

INZ004-005-014>016-021>024-290900-
NORTH CENTRAL INDIANA

CITY           SKY/WX    TMP DP  RH WIND       PRES   REMARKS
GOSHEN         MOCLDY    71  57  61 SW6       29.89R
SOUTH BEND     MOCLDY    65  64  97 SE7       29.85F

$$

INZ006>009-017-018-025>027-290900-
NORTHEAST INDIANA

CITY           SKY/WX    TMP DP  RH WIND       PRES   REMARKS
ANGOLA *+      MOCLDY    68  61  77 S6        29.90F
FORT WAYNE     CLOUDY    70  55  59 SW14      29.91F
KENDALLVILLE + PTCLDY    70  56  61 SW10      29.91S

$$

INZ028-029-035-036-043>045-051>053-290900-
WEST CENTRAL INDIANA

CITY           SKY/WX    TMP DP  RH WIND       PRES   REMARKS
CRAWFORDSVL +  CLOUDY    69  61  76 S13       29.93F
LAFAYETTE      CLOUDY    72  62  71 SW12G18   29.88F
TERRE HAUTE    CLOUDY    73  61  65 SW13      29.95R

$$

INZ030>032-037>040-046>048-054>057-064-065-290900-
CENTRAL INDIANA

CITY           SKY/WX    TMP DP  RH WIND       PRES   REMARKS
GREENWOOD *+   CLOUDY    69  55  61 S12       29.97F
INDIANAPOLIS   CLOUDY    70  58  65 SW12      29.95S
-EAGLE CREEK   PTCLDY    70  58  65 S7        29.95S
KOKOMO +       CLOUDY    72  60  66 SW20G26   29.91F
MT COMFORT *+  CLOUDY    66  55  68 S9G16     29.96F
SHELBYVILLE    CLOUDY    68  55  63 S12       29.96F

$$

INZ033-034-041-042-049-050-058-059-290900-
EAST CENTRAL INDIANA

CITY           SKY/WX    TMP DP  RH WIND       PRES   REMARKS
MUNCIE         CLOUDY    73  55  53 SW12G21   29.94F
RICHMOND +     CLOUDY    61  54  77 S7        30.01S

$$

INZ060-061-067>069-081>083-085>088-290900-
SOUTHWEST INDIANA

CITY           SKY/WX    TMP DP  RH WIND       PRES   REMARKS
EVANSVILLE     CLOUDY    73  62  68 S7        29.99S
HUNTINGBURG *+ CLOUDY    70  61  73 S10       30.00S

$$

INZ062-063-066-070>080-084-089>092-290900-
SOUTH CENTRAL AND SOUTHEAST INDIANA

CITY           SKY/WX    TMP DP  RH WIND       PRES   REMARKS
BLOOMINGTON    PTCLDY    70  58  65 S8        29.97F
MADISON *+     PTCLDY    68  54  60 S7        30.03F
SEYMOUR +      PTCLDY    70  57  64 S7        29.99F

$$




USA.gov is the U.S. government's official web portal to all federal, state and local government web resources and services.